Tracking 29892 objects as of 21-Nov-2024
HD Live streaming from Space Station
objects crossing your sky now

SCOUT G-1 DEB

Track SCOUT G-1 DEB now!
10-day predictions


NORAD ID: 21532
Int'l Code: 1991-045D
Perigee: 733.3 km
Apogee: 828.6 km
Inclination: 89.5 °
Period: 100.3 minutes
Semi major axis: 7151 km
RCS: 0.0401 m2 (small)
Launch date: June 29, 1991
Source: United States (US)
Launch site: AIR FORCE WESTERN TEST RANGE (AFWTR)

Note: This is SATELLITE DEBRIS
Your satellite tracking list
Your tracking list is empty




NASA's NSSDC Master Catalog

Two Line Element Set (TLE):
1 21532U 91045D   24325.21788916  .00001799  00000-0  60719-3 0  9992
2 21532  89.5388 228.9908 0066626  36.0937 115.4924 14.35380448740724
Source of the keplerian elements: AFSPC